This demonstration page uses our WeatherBlox Daily Observations layout. Learn more.

Left ArrowRight Arrow

34.74481, -87.66753

Hourly Observations for February 4, 2018

Temp ( °F °C ) Dew Point ( °F °C ) Humidity (%) Winds ( mph kmh ) Pressure ( in mb ) Visibility ( mi km ) Precip ( " mm )
12:53 am 00:53 Cloudy with Rain 42 5.6 37 2.8 82 82 SSE 7 11 30.01 1016 5 8 0.11 2.79
1:53 am 01:53 Cloudy with Rain 42 5.6 38 3.3 85 85 SE 12 19 29.94 1014 5 8 0.15 3.81
2:35 am 02:35 Cloudy with Rain 42 5.6 38 3.3 85 85 SE 17 28 29.91 1013 5 8 0.10 2.54
2:53 am 02:53 Cloudy with Rain 42 5.6 39 3.9 89 89 SE 16 26 29.87 1012 5 8 0.13 3.30
3:12 am 03:12 Cloudy with Rain 43 6.1 39 3.9 86 86 SSE 20 31 29.88 1012 6 10 0.04 1.02
3:23 am 03:23 Cloudy with Light Rain 43 6.1 40 4.4 89 89 SSE 13 20 29.88 1012 7 11 0.06 1.52
3:53 am 03:53 Cloudy with Light Rain 44 6.7 41 5 89 89 SSE 14 22 29.85 1011 10 16 0.12 3.05
4:53 am 04:53 Cloudy 45 7.2 42 5.6 90 90 W 8 13 29.88 1012 10 16 0.04 1.02
5:43 am 05:43 Cloudy with Mist and Fog 44 6.7 41 5 89 89 WNW 6 9 29.88 1012 6 10 0.01 0.25
5:53 am 05:53 Cloudy 44 6.7 41 5 89 89 WNW 8 13 29.88 1012 7 11 0.01 0.25
6:13 am 06:13 Cloudy 43 6.1 40 4.4 89 89 NW 8 13 29.88 1012 10 16 0.00 0.00
6:43 am 06:43 Cloudy with Mist and Fog 43 6.1 40 4.4 89 89 NNW 6 9 29.91 1013 4 6 0.00 0.00
6:53 am 06:53 Cloudy with Mist and Fog 43 6.1 40 4.4 89 89 N 5 7 29.90 1012 4 6 0.00 0.00
7:22 am 07:22 Cloudy with Light Rain 43 6.1 40 4.4 89 89 NNW 5 7 29.91 1013 2 3 0.00 0.03
7:31 am 07:31 Cloudy with Light Rain 43 6.1 40 4.4 89 89 NNW 3 6 29.91 1013 1 2 0.00 0.03
7:38 am 07:38 Cloudy with Light Rain 43 6.1 40 4.4 89 89 NNW 3 6 29.91 1013 1 2 0.01 0.25
7:53 am 07:53 Cloudy with Mist and Fog 43 6.1 40 4.4 89 89 NW 6 9 29.93 1014 2 3 0.01 0.25
8:07 am 08:07 Cloudy with Mist and Fog 43 6.1 41 5 93 93 NW 3 6 29.94 1014 2 2 0.01 0.25
8:32 am 08:32 Cloudy with Mist and Fog 43 6.1 40 4.4 89 89 WNW 3 6 29.94 1014 2 3 0.02 0.51
8:53 am 08:53 Cloudy with Mist and Fog 44 6.7 41 5 89 89 Calm 29.93 1014 4 6 0.02 0.51
9:25 am 09:25 Cloudy 45 7.2 42 5.6 90 90 W 5 7 29.94 1014 10 16 0.00 0.00
9:53 am 09:53 Cloudy 46 7.8 42 5.6 86 86 W 8 13 29.94 1014 10 16 0.00 0.00
10:53 am 10:53 Cloudy 46 7.8 42 5.6 86 86 WNW 8 13 29.94 1014 10 16 0.00 0.00
11:53 am 11:53 Cloudy 45 7.2 41 5 86 86 WNW 15 24 29.94 1014 10 16 0.00 0.00
12:53 pm 12:53 Cloudy 46 7.8 41 5 83 83 WNW 10 17 29.94 1014 10 16 0.00 0.00
1:26 pm 13:26 Cloudy 48 8.9 40 4.4 74 74 WNW 8 13 29.91 1013 10 16 0.00 0.00
1:53 pm 13:53 Mostly Cloudy 49 9.4 41 5 74 74 WNW 7 11 29.92 1013 10 16 0.00 0.00
2:42 pm 14:42 Partly Cloudy 52 11.1 42 5.6 69 69 WNW 9 15 29.94 1014 10 16 0.00 0.00
2:53 pm 14:53 Mostly Sunny 53 11.7 41 5 64 64 NW 9 15 29.95 1014 10 16 0.00 0.00
3:53 pm 15:53 Sunny 54 12.2 40 4.4 59 59 W 13 20 29.96 1015 10 16 0.00 0.00
4:53 pm 16:53 Sunny 53 11.7 39 3.9 59 59 WNW 9 15 29.99 1016 10 16 0.00 0.00
5:53 pm 17:53 Clear 48 8.9 38 3.3 68 68 WNW 6 9 30.03 1017 10 16 0.00 0.00
6:53 pm 18:53 Mostly Cloudy 50 10 38 3.3 63 63 NNW 7 11 30.07 1018 10 16 0.00 0.00
7:53 pm 19:53 Clear 49 9.4 38 3.3 66 66 NNW 8 13 30.08 1019 10 16 0.00 0.00
8:53 pm 20:53 Clear 46 7.8 37 2.8 71 71 NNW 5 7 30.11 1020 10 16 0.00 0.00
9:53 pm 21:53 Partly Cloudy 43 6.1 34 1.1 71 71 NNW 10 17 30.15 1021 10 16 0.00 0.00
10:12 pm 22:12 Mostly Cloudy 42 5.6 34 1.1 73 73 NNW 14 22 30.15 1021 10 16 0.00 0.00
10:53 pm 22:53 Cloudy 40 4.4 31 -0.6 70 70 NNW 9 15 30.18 1022 10 16 0.00 0.00
11:53 pm 23:53 Cloudy 38 3.3 30 -1.1 73 73 N 9 15 30.21 1023 8 13 0.00 0.00

Powered by AerisWeather